| time (UTC) | temp C | wind direction | speed KPH | gust KPH | rain 1hr cm | rain 24hr cm | rain mn cm | humidity % | barometer mb |
| 20260905123548 | 15 | 62 | 0.0 | 4.8 | 0.00 | 0.00 | 0.00 | 27 | 1019.2 |
| 20260905123105 | 15 | 277 | 0.0 | 4.8 | 0.00 | 0.00 | 0.00 | 28 | 1019.3 |
| 20260905122547 | 16 | 0 | 0.0 | 3.2 | 0.00 | 0.00 | 0.00 | 28 | 1019.3 |
| 20260905122048 | 16 | 0 | 0.0 | 9.7 | 0.00 | 0.00 | 0.00 | 28 | 1019.2 |
| 20260905121557 | 16 | 50 | 0.0 | 9.7 | 0.00 | 0.00 | 0.00 | 27 | 1019.2 |
| 20260905121047 | 15 | 157 | 1.6 | 9.7 | 0.00 | 0.00 | 0.00 | 28 | 1019.3 |
| 20260905120544 | 15 | 0 | 1.6 | 6.4 | 0.00 | 0.00 | 0.00 | 27 | 1019.3 |
| 20260905120106 | 15 | 51 | 0.0 | 6.4 | 0.00 | 0.00 | 0.00 | 26 | 1019.1 |
| 20260905115550 | 15 | 0 | 0.0 | 6.4 | 0.00 | 0.00 | 0.00 | 27 | 1019.1 |
| 20260905115048 | 15 | 330 | 0.0 | 4.8 | 0.00 | 0.00 | 0.00 | 26 | 1019.2 |
| 20260905114601 | 15 | 0 | 0.0 | 4.8 | 0.00 | 0.00 | 0.00 | 26 | 1019.1 |
| 20260905114048 | 15 | 35 | 0.0 | 6.4 | 0.00 | 0.00 | 0.00 | 25 | 1019.1 |
| 20260905113548 | 15 | 0 | 0.0 | 6.4 | 0.00 | 0.00 | 0.00 | 25 | 1019.1 |
| 20260905113059 | 15 | 26 | 0.0 | 3.2 | 0.00 | 0.00 | 0.00 | 25 | 1019.2 |
| 20260905112544 | 15 | 338 | 0.0 | 3.2 | 0.00 | 0.00 | 0.00 | 25 | 1019.2 |
| 20260905112048 | 15 | 0 | 0.0 | 3.2 | 0.00 | 0.00 | 0.00 | 26 | 1019.2 |
| 20260905111646 | 15 | 348 | 0.0 | 3.2 | 0.00 | 0.00 | 0.00 | 26 | 1019.1 |
| 20260905111047 | 15 | 0 | 0.0 | 4.8 | 0.00 | 0.00 | 0.00 | 25 | 1019.2 |
| 20260905110548 | 15 | 0 | 0.0 | 4.8 | 0.00 | 0.00 | 0.00 | 27 | 1019.3 |
| 20260905110059 | 15 | 339 | 0.0 | 4.8 | 0.00 | 0.00 | 0.00 | 26 | 1019.4 |
| 20260905105548 | 15 | 0 | 0.0 | 3.2 | 0.00 | 0.00 | 0.00 | 27 | 1019.4 |
| 20260905105045 | 15 | 0 | 0.0 | 3.2 | 0.00 | 0.00 | 0.00 | 25 | 1019.4 |
| 20260905104559 | 15 | 44 | 0.0 | 6.4 | 0.00 | 0.00 | 0.00 | 25 | 1019.4 |
| 20260905104047 | 14 | 0 | 0.0 | 6.4 | 0.00 | 0.00 | 0.00 | 27 | 1019.4 |
| 20260905103549 | 14 | 44 | 0.0 | 4.8 | 0.00 | 0.00 | 0.00 | 25 | 1019.4 |
| 20260905103100 | 13 | 47 | 0.0 | 3.2 | 0.00 | 0.00 | 0.00 | 27 | 1019.3 |
| 20260905102548 | 13 | 329 | 0.0 | 4.8 | 0.00 | 0.00 | 0.00 | 29 | 1019.3 |
| 20260905102048 | 13 | 0 | 0.0 | 4.8 | 0.00 | 0.00 | 0.00 | 30 | 1019.4 |
| 20260905101556 | 13 | 34 | 0.0 | 4.8 | 0.00 | 0.00 | 0.00 | 32 | 1019.5 |
| 20260905101047 | 13 | 0 | 0.0 | 4.8 | 0.00 | 0.00 | 0.00 | 29 | 1019.4 |
| 20260905100549 | 13 | 0 | 0.0 | 3.2 | 0.00 | 0.00 | 0.00 | 33 | 1019.5 |
| 20260905100109 | 13 | 0 | 0.0 | 3.2 | 0.00 | 0.00 | 0.00 | 33 | 1019.6 |
| 20260905095544 | 13 | 0 | 0.0 | 1.6 | 0.00 | 0.00 | 0.00 | 34 | 1019.6 |
| 20260905095048 | 13 | 0 | 0.0 | 1.6 | 0.00 | 0.00 | 0.00 | 36 | 1019.7 |
| 20260905094559 | 12 | 0 | 0.0 | 1.6 | 0.00 | 0.00 | 0.00 | 35 | 1019.7 |
| 20260905094058 | 12 | 0 | 0.0 | 1.6 | 0.00 | 0.00 | 0.00 | 36 | 1019.7 |
| 20260905093549 | 12 | 0 | 0.0 | 1.6 | 0.00 | 0.00 | 0.00 | 36 | 1019.7 |
| 20260905093100 | 12 | 0 | 0.0 | 1.6 | 0.00 | 0.00 | 0.00 | 38 | 1019.7 |
| 20260905092546 | 12 | 0 | 0.0 | 1.6 | 0.00 | 0.00 | 0.00 | 39 | 1019.8 |
| 20260905092045 | 12 | 0 | 0.0 | 1.6 | 0.00 | 0.00 | 0.00 | 39 | 1019.8 |
| 20260905091610 | 12 | 0 | 0.0 | 1.6 | 0.00 | 0.00 | 0.00 | 40 | 1019.7 |
| 20260905091045 | 12 | 0 | 0.0 | 1.6 | 0.00 | 0.00 | 0.00 | 40 | 1019.7 |
| 20260905090544 | 12 | 0 | 0.0 | 0.0 | 0.00 | 0.00 | 0.00 | 42 | 1019.8 |
| 20260905090100 | 12 | 0 | 0.0 | 0.0 | 0.00 | 0.00 | 0.00 | 43 | 1019.8 |
| 20260905085546 | 12 | 0 | 0.0 | 0.0 | 0.00 | 0.00 | 0.00 | 44 | 1019.9 |
| 20260905085050 | 12 | 0 | 0.0 | 0.0 | 0.00 | 0.00 | 0.00 | 45 | 1020.0 |
| 20260905084558 | 12 | 0 | 0.0 | 0.0 | 0.00 | 0.00 | 0.00 | 45 | 1020.0 |
| 20260905084043 | 12 | 0 | 0.0 | 0.0 | 0.00 | 0.00 | 0.00 | 45 | 1020.1 |
| 20260905083544 | 12 | 0 | 0.0 | 0.0 | 0.00 | 0.00 | 0.00 | 46 | 1020.1 |
| 20260905083053 | 12 | 0 | 0.0 | 0.0 | 0.00 | 0.00 | 0.00 | 45 | 1020.1 |
| 20260905082544 | 12 | 0 | 0.0 | 0.0 | 0.00 | 0.00 | 0.00 | 46 | 1020.1 |
| 20260905082044 | 12 | 0 | 0.0 | 0.0 | 0.00 | 0.00 | 0.00 | 46 | 1020.1 |
| 20260905081606 | 12 | 0 | 0.0 | 0.0 | 0.00 | 0.00 | 0.00 | 45 | 1020.2 |
| 20260905081042 | 12 | 0 | 0.0 | 0.0 | 0.00 | 0.00 | 0.00 | 45 | 1020.2 |
| 20260905080543 | 13 | 0 | 0.0 | 0.0 | 0.00 | 0.00 | 0.00 | 45 | 1020.3 |
| 20260905075545 | 13 | 0 | 0.0 | 0.0 | 0.00 | 0.00 | 0.00 | 45 | 1020.4 |
| 20260905075044 | 13 | 0 | 0.0 | 0.0 | 0.00 | 0.00 | 0.00 | 44 | 1020.5 |
| 20260905074558 | 13 | 0 | 0.0 | 0.0 | 0.00 | 0.00 | 0.00 | 44 | 1020.5 |
| 20260905074046 | 13 | 0 | 0.0 | 0.0 | 0.00 | 0.00 | 0.00 | 44 | 1020.5 |
| 20260905073546 | 13 | 0 | 0.0 | 0.0 | 0.00 | 0.00 | 0.00 | 44 | 1020.5 |
| 20260905073059 | 13 | 0 | 0.0 | 0.0 | 0.00 | 0.00 | 0.00 | 44 | 1020.4 |
| 20260905072544 | 13 | 0 | 0.0 | 0.0 | 0.00 | 0.00 | 0.00 | 43 | 1020.4 |
| 20260905072043 | 13 | 0 | 0.0 | 0.0 | 0.00 | 0.00 | 0.00 | 44 | 1020.3 |
| 20260905071603 | 13 | 0 | 0.0 | 0.0 | 0.00 | 0.00 | 0.00 | 43 | 1020.3 |
| 20260905071044 | 13 | 0 | 0.0 | 0.0 | 0.00 | 0.00 | 0.00 | 44 | 1020.2 |
| 20260905070545 | 13 | 0 | 0.0 | 0.0 | 0.00 | 0.00 | 0.00 | 43 | 1020.2 |
| 20260905070100 | 13 | 0 | 0.0 | 0.0 | 0.00 | 0.00 | 0.00 | 44 | 1020.1 |
| 20260905065544 | 13 | 0 | 0.0 | 0.0 | 0.00 | 0.00 | 0.00 | 44 | 1020.1 |
| 20260905065045 | 13 | 0 | 0.0 | 0.0 | 0.00 | 0.00 | 0.00 | 44 | 1020.0 |
| 20260905064603 | 13 | 0 | 0.0 | 0.0 | 0.00 | 0.00 | 0.00 | 45 | 1020.0 |
| 20260905064046 | 13 | 0 | 0.0 | 0.0 | 0.00 | 0.00 | 0.00 | 46 | 1020.0 |
| 20260905063543 | 13 | 0 | 0.0 | 0.0 | 0.00 | 0.00 | 0.00 | 46 | 1020.0 |
| 20260905063104 | 13 | 0 | 0.0 | 0.0 | 0.00 | 0.00 | 0.00 | 47 | 1020.0 |
| 20260905062544 | 13 | 0 | 0.0 | 0.0 | 0.00 | 0.00 | 0.00 | 47 | 1020.1 |
| 20260905062046 | 13 | 0 | 0.0 | 0.0 | 0.00 | 0.00 | 0.00 | 47 | 1020.0 |
| 20260905061612 | 13 | 0 | 0.0 | 0.0 | 0.00 | 0.00 | 0.00 | 47 | 1020.0 |
| 20260905061046 | 13 | 0 | 0.0 | 0.0 | 0.00 | 0.00 | 0.00 | 48 | 1020.0 |
| 20260905060546 | 13 | 0 | 0.0 | 0.0 | 0.00 | 0.00 | 0.00 | 47 | 1020.0 |
| 20260905060100 | 13 | 0 | 0.0 | 0.0 | 0.00 | 0.00 | 0.00 | 47 | 1020.0 |
| 20260905055544 | 13 | 0 | 0.0 | 0.0 | 0.00 | 0.00 | 0.00 | 47 | 1020.0 |
| 20260905055044 | 13 | 0 | 0.0 | 0.0 | 0.00 | 0.00 | 0.00 | 47 | 1019.9 |
| 20260905054602 | 13 | 0 | 0.0 | 0.0 | 0.00 | 0.00 | 0.00 | 46 | 1019.9 |
| 20260905054047 | 13 | 0 | 0.0 | 0.0 | 0.00 | 0.00 | 0.00 | 46 | 1019.8 |
| 20260905053545 | 14 | 0 | 0.0 | 0.0 | 0.00 | 0.00 | 0.00 | 45 | 1019.9 |
| 20260905053103 | 14 | 0 | 0.0 | 0.0 | 0.00 | 0.00 | 0.00 | 45 | 1019.9 |
| 20260905052545 | 14 | 0 | 0.0 | 0.0 | 0.00 | 0.00 | 0.00 | 45 | 1020.0 |
| 20260905052043 | 14 | 0 | 0.0 | 0.0 | 0.00 | 0.00 | 0.00 | 45 | 1019.9 |
| 20260905051601 | 14 | 0 | 0.0 | 0.0 | 0.00 | 0.00 | 0.00 | 45 | 1019.9 |
| 20260905051043 | 14 | 0 | 0.0 | 0.0 | 0.00 | 0.00 | 0.00 | 44 | 1019.8 |
| 20260905050543 | 15 | 0 | 0.0 | 0.0 | 0.00 | 0.00 | 0.00 | 45 | 1019.7 |
| 20260905050106 | 15 | 0 | 0.0 | 1.6 | 0.00 | 0.00 | 0.00 | 45 | 1019.8 |
| 20260905045544 | 15 | 0 | 0.0 | 1.6 | 0.00 | 0.00 | 0.00 | 45 | 1019.7 |
| 20260905045044 | 15 | 0 | 0.0 | 1.6 | 0.00 | 0.00 | 0.00 | 46 | 1019.7 |
| 20260905044604 | 15 | 0 | 0.0 | 1.6 | 0.00 | 0.00 | 0.00 | 46 | 1019.7 |
| 20260905044144 | 15 | 0 | 0.0 | 1.6 | 0.00 | 0.00 | 0.00 | 47 | 1019.7 |
| 20260905043544 | 15 | 0 | 0.0 | 1.6 | 0.00 | 0.00 | 0.00 | 48 | 1019.6 |
| 20260905043104 | 14 | 0 | 0.0 | 1.6 | 0.00 | 0.00 | 0.00 | 49 | 1019.6 |
| 20260905042543 | 14 | 0 | 0.0 | 1.6 | 0.00 | 0.00 | 0.00 | 51 | 1019.6 |
| 20260905042043 | 14 | 0 | 0.0 | 1.6 | 0.00 | 0.00 | 0.00 | 52 | 1019.6 |
| 20260905041556 | 13 | 0 | 0.0 | 3.2 | 0.00 | 0.00 | 0.00 | 54 | 1019.6 |
| 20260905041044 | 13 | 0 | 0.0 | 3.2 | 0.00 | 0.00 | 0.00 | 54 | 1019.6 |
| 20260905040546 | 13 | 0 | 0.0 | 0.0 | 0.00 | 0.00 | 0.00 | 54 | 1019.5 |
| 20260905035547 | 14 | 0 | 0.0 | 0.0 | 0.00 | 0.00 | 0.00 | 54 | 1019.4 |
| 20260905035044 | 14 | 0 | 0.0 | 0.0 | 0.00 | 0.00 | 0.00 | 55 | 1019.6 |
| 20260905034607 | 14 | 0 | 0.0 | 1.6 | 0.00 | 0.00 | 0.00 | 56 | 1019.5 |
| 20260905034044 | 14 | 0 | 0.0 | 1.6 | 0.00 | 0.00 | 0.00 | 55 | 1019.4 |
| 20260905033543 | 14 | 0 | 0.0 | 0.0 | 0.00 | 0.00 | 0.00 | 56 | 1019.3 |
| 20260905033104 | 14 | 0 | 0.0 | 0.0 | 0.00 | 0.00 | 0.00 | 57 | 1019.2 |
| 20260905032544 | 15 | 0 | 0.0 | 0.0 | 0.00 | 0.00 | 0.00 | 57 | 1019.1 |
| 20260905032042 | 15 | 0 | 0.0 | 0.0 | 0.00 | 0.00 | 0.00 | 57 | 1019.1 |
| 20260905031559 | 15 | 0 | 0.0 | 0.0 | 0.00 | 0.00 | 0.00 | 58 | 1019.1 |
| 20260905031044 | 15 | 0 | 0.0 | 0.0 | 0.00 | 0.00 | 0.00 | 57 | 1019.1 |
| 20260905030623 | 15 | 0 | 0.0 | 0.0 | 0.00 | 0.00 | 0.00 | 57 | 1019.1 |
| 20260905030547 | 15 | 0 | 0.0 | 0.0 | 0.00 | 0.00 | 0.00 | 57 | 1019.1 |
| 20260905030123 | 15 | 0 | 0.0 | 0.0 | 0.00 | 0.00 | 0.00 | 57 | 1019.1 |
| 20260905025547 | 16 | 0 | 0.0 | 0.0 | 0.00 | 0.00 | 0.00 | 57 | 1019.0 |
| 20260905025048 | 16 | 0 | 0.0 | 0.0 | 0.00 | 0.00 | 0.00 | 58 | 1018.9 |
| 20260905024602 | 16 | 0 | 0.0 | 0.0 | 0.00 | 0.00 | 0.00 | 58 | 1018.9 |
| 20260905024048 | 16 | 0 | 0.0 | 0.0 | 0.00 | 0.00 | 0.00 | 58 | 1019.0 |
| 20260905023550 | 16 | 0 | 0.0 | 0.0 | 0.00 | 0.00 | 0.00 | 58 | 1018.8 |
| 20260905023100 | 17 | 0 | 0.0 | 0.0 | 0.00 | 0.00 | 0.00 | 58 | 1018.9 |
| 20260905022547 | 17 | 0 | 0.0 | 0.0 | 0.00 | 0.00 | 0.00 | 58 | 1019.0 |
| 20260905022047 | 17 | 0 | 0.0 | 0.0 | 0.00 | 0.00 | 0.00 | 57 | 1019.1 |
| 20260905021606 | 17 | 0 | 0.0 | 1.6 | 0.00 | 0.00 | 0.00 | 56 | 1018.9 |
| 20260905021047 | 17 | 0 | 0.0 | 1.6 | 0.00 | 0.00 | 0.00 | 57 | 1018.9 |
| 20260905020545 | 18 | 0 | 0.0 | 1.6 | 0.00 | 0.00 | 0.00 | 57 | 1018.9 |
| 20260905020108 | 18 | 0 | 0.0 | 3.2 | 0.00 | 0.00 | 0.00 | 56 | 1018.9 |
| 20260905015548 | 18 | 0 | 0.0 | 3.2 | 0.00 | 0.00 | 0.00 | 56 | 1018.9 |
| 20260905015050 | 18 | 0 | 0.0 | 3.2 | 0.00 | 0.00 | 0.00 | 56 | 1018.9 |
| 20260905014558 | 18 | 0 | 0.0 | 4.8 | 0.00 | 0.00 | 0.00 | 55 | 1019.0 |
| 20260905014051 | 18 | 313 | 1.6 | 4.8 | 0.00 | 0.00 | 0.00 | 55 | 1019.0 |
| 20260905013547 | 19 | 0 | 0.0 | 1.6 | 0.00 | 0.00 | 0.00 | 54 | 1019.0 |
| 20260905013100 | 19 | 107 | 0.0 | 6.4 | 0.00 | 0.00 | 0.00 | 54 | 1018.8 |
| 20260905012545 | 19 | 0 | 0.0 | 6.4 | 0.00 | 0.00 | 0.00 | 54 | 1018.9 |
| 20260905012046 | 19 | 0 | 0.0 | 3.2 | 0.00 | 0.00 | 0.00 | 55 | 1019.0 |
| 20260905011559 | 20 | 0 | 0.0 | 6.4 | 0.00 | 0.00 | 0.00 | 54 | 1018.9 |
| 20260905011042 | 20 | 0 | 0.0 | 6.4 | 0.00 | 0.00 | 0.00 | 54 | 1019.1 |
| 20260905010543 | 20 | 0 | 0.0 | 14.5 | 0.00 | 0.00 | 0.00 | 53 | 1019.0 |
| 20260905005544 | 20 | 192 | 3.2 | 16.1 | 0.00 | 0.00 | 0.00 | 51 | 1019.0 |
| 20260905005043 | 21 | 339 | 0.0 | 8.0 | 0.00 | 0.00 | 0.00 | 49 | 1018.9 |
| 20260905004614 | 21 | 202 | 1.6 | 11.3 | 0.00 | 0.00 | 0.00 | 48 | 1018.8 |
| 20260905004043 | 21 | 0 | 3.2 | 11.3 | 0.00 | 0.00 | 0.00 | 45 | 1018.9 |
| 20260905003546 | 21 | 133 | 0.0 | 11.3 | 0.00 | 0.00 | 0.00 | 47 | 1018.9 |
| 20260905003057 | 21 | 0 | 1.6 | 12.9 | 0.00 | 0.00 | 0.00 | 48 | 1018.8 |
| 20260905002543 | 22 | 325 | 3.2 | 14.5 | 0.00 | 0.00 | 0.00 | 47 | 1018.9 |
| 20260905002046 | 22 | 134 | 3.2 | 14.5 | 0.00 | 0.00 | 0.00 | 46 | 1018.8 |
| 20260905001556 | 22 | 0 | 3.2 | 12.9 | 0.00 | 0.00 | 0.00 | 44 | 1018.8 |
| 20260905001049 | 22 | 208 | 1.6 | 12.9 | 0.00 | 0.00 | 0.00 | 45 | 1018.8 |
| 20260905000546 | 22 | 134 | 1.6 | 11.3 | 0.00 | 0.00 | 0.00 | 46 | 1018.9 |
| 20260904235547 | 22 | 117 | 1.6 | 12.9 | 0.00 | 0.00 | 0.00 | 46 | 1018.8 |
| 20260904235047 | 22 | 131 | 3.2 | 14.5 | 0.00 | 0.00 | 0.00 | 44 | 1018.7 |
| 20260904234601 | 23 | 163 | 4.8 | 14.5 | 0.00 | 0.00 | 0.00 | 45 | 1018.7 |
| 20260904234050 | 23 | 256 | 1.6 | 19.3 | 0.00 | 0.00 | 0.00 | 44 | 1018.8 |
| 20260904233548 | 23 | 160 | 8.0 | 19.3 | 0.00 | 0.00 | 0.00 | 42 | 1018.8 |
| 20260904233101 | 23 | 173 | 1.6 | 19.3 | 0.00 | 0.00 | 0.00 | 43 | 1018.8 |
| 20260904232546 | 23 | 163 | 3.2 | 19.3 | 0.00 | 0.00 | 0.00 | 40 | 1018.8 |
| 20260904232046 | 23 | 155 | 1.6 | 16.1 | 0.00 | 0.00 | 0.00 | 39 | 1019.0 |
| 20260904231603 | 24 | 223 | 3.2 | 16.1 | 0.00 | 0.00 | 0.00 | 39 | 1018.9 |
| 20260904231047 | 24 | 155 | 3.2 | 16.1 | 0.00 | 0.00 | 0.00 | 40 | 1018.9 |
| 20260904230545 | 24 | 157 | 4.8 | 16.1 | 0.00 | 0.00 | 0.00 | 39 | 1018.9 |
| 20260904230105 | 24 | 202 | 3.2 | 14.5 | 0.00 | 0.00 | 0.00 | 36 | 1018.9 |
| 20260904225544 | 24 | 123 | 4.8 | 14.5 | 0.00 | 0.00 | 0.00 | 36 | 1018.8 |
| 20260904225052 | 24 | 214 | 3.2 | 14.5 | 0.00 | 0.00 | 0.00 | 37 | 1018.8 |
| 20260904224601 | 24 | 144 | 1.6 | 20.9 | 0.00 | 0.00 | 0.00 | 36 | 1018.8 |
| 20260904224050 | 25 | 178 | 4.8 | 20.9 | 0.00 | 0.00 | 0.00 | 36 | 1018.9 |
| 20260904223549 | 24 | 242 | 3.2 | 17.7 | 0.00 | 0.00 | 0.00 | 35 | 1019.0 |
| 20260904223101 | 25 | 167 | 3.2 | 19.3 | 0.00 | 0.00 | 0.00 | 33 | 1019.0 |
| 20260904222545 | 25 | 133 | 8.0 | 19.3 | 0.00 | 0.00 | 0.00 | 29 | 1019.0 |
| 20260904222048 | 25 | 192 | 6.4 | 17.7 | 0.00 | 0.00 | 0.00 | 28 | 1019.0 |
| 20260904221613 | 25 | 216 | 4.8 | 17.7 | 0.00 | 0.00 | 0.00 | 27 | 1019.1 |
| 20260904221045 | 25 | 0 | 4.8 | 12.9 | 0.00 | 0.00 | 0.00 | 30 | 1019.0 |
| 20260904220548 | 25 | 184 | 3.2 | 16.1 | 0.00 | 0.00 | 0.00 | 27 | 1019.0 |
| 20260904220107 | 25 | 200 | 3.2 | 16.1 | 0.00 | 0.00 | 0.00 | 28 | 1019.2 |
| 20260904215547 | 25 | 216 | 4.8 | 16.1 | 0.00 | 0.00 | 0.00 | 26 | 1019.3 |
| 20260904215044 | 25 | 142 | 6.4 | 16.1 | 0.00 | 0.00 | 0.00 | 26 | 1019.1 |
| 20260904214611 | 25 | 343 | 1.6 | 17.7 | 0.00 | 0.00 | 0.00 | 28 | 1019.1 |
| 20260904214047 | 25 | 143 | 3.2 | 19.3 | 0.00 | 0.00 | 0.00 | 28 | 1019.3 |
| 20260904213545 | 25 | 169 | 4.8 | 19.3 | 0.00 | 0.00 | 0.00 | 28 | 1019.4 |
| 20260904213058 | 25 | 148 | 3.2 | 12.9 | 0.00 | 0.00 | 0.00 | 29 | 1019.3 |
| 20260904212549 | 25 | 116 | 1.6 | 12.9 | 0.00 | 0.00 | 0.00 | 30 | 1019.2 |
| 20260904212046 | 25 | 219 | 1.6 | 12.9 | 0.00 | 0.00 | 0.00 | 29 | 1019.3 |
| 20260904211618 | 25 | 349 | 4.8 | 14.5 | 0.00 | 0.00 | 0.00 | 28 | 1019.3 |
| 20260904211048 | 25 | 232 | 3.2 | 17.7 | 0.00 | 0.00 | 0.00 | 29 | 1019.4 |
| 20260904210545 | 25 | 148 | 3.2 | 17.7 | 0.00 | 0.00 | 0.00 | 30 | 1019.3 |
| 20260904210105 | 25 | 163 | 3.2 | 17.7 | 0.00 | 0.00 | 0.00 | 30 | 1019.4 |
| 20260904205549 | 25 | 108 | 3.2 | 17.7 | 0.00 | 0.00 | 0.00 | 31 | 1019.3 |
| 20260904205045 | 25 | 180 | 4.8 | 17.7 | 0.00 | 0.00 | 0.00 | 30 | 1019.4 |
| 20260904204600 | 24 | 164 | 1.6 | 14.5 | 0.00 | 0.00 | 0.00 | 31 | 1019.4 |
| 20260904204045 | 24 | 135 | 1.6 | 14.5 | 0.00 | 0.00 | 0.00 | 32 | 1019.6 |
| 20260904203548 | 24 | 165 | 3.2 | 19.3 | 0.00 | 0.00 | 0.00 | 32 | 1019.6 |
| 20260904203114 | 25 | 249 | 4.8 | 19.3 | 0.00 | 0.00 | 0.00 | 31 | 1019.4 |
| 20260904202544 | 25 | 157 | 3.2 | 11.3 | 0.00 | 0.00 | 0.00 | 31 | 1019.5 |
| 20260904202044 | 24 | 150 | 3.2 | 12.9 | 0.00 | 0.00 | 0.00 | 32 | 1019.4 |
| 20260904201600 | 24 | 95 | 4.8 | 14.5 | 0.00 | 0.00 | 0.00 | 31 | 1019.4 |
| 20260904201044 | 24 | 157 | 3.2 | 19.3 | 0.00 | 0.00 | 0.00 | 31 | 1019.6 |
| 20260904200544 | 24 | 144 | 4.8 | 19.3 | 0.00 | 0.00 | 0.00 | 29 | 1019.4 |
| 20260904200111 | 24 | 137 | 1.6 | 9.7 | 0.00 | 0.00 | 0.00 | 30 | 1019.5 |
| 20260904195546 | 24 | 194 | 1.6 | 11.3 | 0.00 | 0.00 | 0.00 | 29 | 1019.4 |
| 20260904195045 | 23 | 188 | 1.6 | 11.3 | 0.00 | 0.00 | 0.00 | 28 | 1019.4 |
| 20260904194603 | 23 | 227 | 4.8 | 11.3 | 0.00 | 0.00 | 0.00 | 28 | 1019.5 |
| 20260904194044 | 23 | 188 | 1.6 | 12.9 | 0.00 | 0.00 | 0.00 | 28 | 1019.4 |
| 20260904193548 | 23 | 101 | 1.6 | 19.3 | 0.00 | 0.00 | 0.00 | 29 | 1019.6 |
| 20260904193058 | 23 | 213 | 4.8 | 19.3 | 0.00 | 0.00 | 0.00 | 27 | 1019.5 |
| 20260904192542 | 23 | 155 | 3.2 | 17.7 | 0.00 | 0.00 | 0.00 | 26 | 1019.6 |
| 20260904192044 | 23 | 177 | 1.6 | 11.3 | 0.00 | 0.00 | 0.00 | 25 | 1019.7 |
| 20260904191558 | 23 | 167 | 3.2 | 14.5 | 0.00 | 0.00 | 0.00 | 25 | 1019.7 |
| 20260904191044 | 23 | 202 | 3.2 | 14.5 | 0.00 | 0.00 | 0.00 | 23 | 1019.7 |
| 20260904190546 | 23 | 0 | 1.6 | 9.7 | 0.00 | 0.00 | 0.00 | 24 | 1019.8 |
| 20260904190058 | 23 | 149 | 3.2 | 12.9 | 0.00 | 0.00 | 0.00 | 23 | 1019.9 |
| 20260904185546 | 23 | 237 | 1.6 | 16.1 | 0.00 | 0.00 | 0.00 | 23 | 1019.9 |
| 20260904185044 | 22 | 215 | 3.2 | 16.1 | 0.00 | 0.00 | 0.00 | 23 | 1019.9 |
| 20260904184600 | 22 | 144 | 4.8 | 16.1 | 0.00 | 0.00 | 0.00 | 24 | 1019.8 |
| 20260904184046 | 22 | 271 | 1.6 | 9.7 | 0.00 | 0.00 | 0.00 | 25 | 1019.9 |
| 20260904183544 | 22 | 225 | 1.6 | 11.3 | 0.00 | 0.00 | 0.00 | 27 | 1020.0 |
| 20260904183101 | 22 | 166 | 3.2 | 16.1 | 0.00 | 0.00 | 0.00 | 26 | 1020.0 |
| 20260904182544 | 21 | 213 | 1.6 | 16.1 | 0.00 | 0.00 | 0.00 | 25 | 1019.9 |
| 20260904182045 | 21 | 144 | 6.4 | 16.1 | 0.00 | 0.00 | 0.00 | 24 | 1019.9 |
| 20260904181558 | 21 | 99 | 3.2 | 14.5 | 0.00 | 0.00 | 0.00 | 27 | 1019.9 |
| 20260904181047 | 21 | 148 | 0.0 | 16.1 | 0.00 | 0.00 | 0.00 | 28 | 1019.8 |
| 20260904180548 | 21 | 159 | 4.8 | 16.1 | 0.00 | 0.00 | 0.00 | 26 | 1019.9 |
| 20260904180116 | 21 | 192 | 3.2 | 12.9 | 0.00 | 0.00 | 0.00 | 26 | 1019.9 |
| 20260904175548 | 21 | 188 | 1.6 | 14.5 | 0.00 | 0.00 | 0.00 | 28 | 1019.9 |
| 20260904175049 | 21 | 177 | 6.4 | 14.5 | 0.00 | 0.00 | 0.00 | 27 | 1019.9 |
| 20260904174609 | 21 | 0 | 3.2 | 14.5 | 0.00 | 0.00 | 0.00 | 28 | 1019.8 |
| 20260904174047 | 21 | 0 | 3.2 | 14.5 | 0.00 | 0.00 | 0.00 | 27 | 1019.7 |
| 20260904173548 | 21 | 196 | 1.6 | 11.3 | 0.00 | 0.00 | 0.00 | 26 | 1019.7 |
| 20260904173105 | 21 | 94 | 1.6 | 11.3 | 0.00 | 0.00 | 0.00 | 27 | 1019.7 |
| 20260904172545 | 21 | 157 | 3.2 | 12.9 | 0.00 | 0.00 | 0.00 | 25 | 1019.6 |
| 20260904172045 | 21 | 177 | 4.8 | 12.9 | 0.00 | 0.00 | 0.00 | 24 | 1019.5 |
| 20260904171607 | 21 | 174 | 4.8 | 12.9 | 0.00 | 0.00 | 0.00 | 24 | 1019.5 |
| 20260904171047 | 21 | 138 | 1.6 | 9.7 | 0.00 | 0.00 | 0.00 | 21 | 1019.6 |
| 20260904170545 | 21 | 180 | 0.0 | 9.7 | 0.00 | 0.00 | 0.00 | 20 | 1019.4 |
| 20260904165548 | 20 | 205 | 1.6 | 6.4 | 0.00 | 0.00 | 0.00 | 18 | 1019.4 |
| 20260904165048 | 20 | 197 | 1.6 | 9.7 | 0.00 | 0.00 | 0.00 | 21 | 1019.3 |
| 20260904164600 | 20 | 147 | 3.2 | 11.3 | 0.00 | 0.00 | 0.00 | 18 | 1019.1 |
| 20260904164047 | 20 | 190 | 4.8 | 11.3 | 0.00 | 0.00 | 0.00 | 18 | 1019.1 |
| 20260904163548 | 19 | 175 | 0.0 | 4.8 | 0.00 | 0.00 | 0.00 | 19 | 1019.0 |
| 20260904163058 | 18 | 152 | 0.0 | 4.8 | 0.00 | 0.00 | 0.00 | 19 | 1019.0 |
| 20260904162545 | 18 | 184 | 0.0 | 8.0 | 0.00 | 0.00 | 0.00 | 17 | 1018.8 |
| 20260904162044 | 18 | 128 | 0.0 | 8.0 | 0.00 | 0.00 | 0.00 | 18 | 1018.9 |
| 20260904161606 | 17 | 0 | 0.0 | 4.8 | 0.00 | 0.00 | 0.00 | 21 | 1018.8 |
| 20260904161048 | 17 | 0 | 0.0 | 4.8 | 0.00 | 0.00 | 0.00 | 25 | 1018.8 |
| 20260904160548 | 16 | 0 | 0.0 | 4.8 | 0.00 | 0.00 | 0.00 | 23 | 1018.7 |
| 20260904160100 | 15 | 0 | 0.0 | 6.4 | 0.00 | 0.00 | 0.00 | 29 | 1018.7 |
| 20260904155546 | 15 | 55 | 0.0 | 6.4 | 0.00 | 0.00 | 0.00 | 32 | 1018.7 |
| 20260904155047 | 14 | 46 | 0.0 | 4.8 | 0.00 | 0.00 | 0.00 | 34 | 1018.7 |
| 20260904154559 | 13 | 0 | 1.6 | 4.8 | 0.00 | 0.00 | 0.00 | 34 | 1018.6 |
| 20260904154048 | 13 | 46 | 3.2 | 4.8 | 0.00 | 0.00 | 0.00 | 35 | 1018.5 |
| 20260904153547 | 12 | 46 | 1.6 | 4.8 | 0.00 | 0.00 | 0.00 | 37 | 1018.5 |
| 20260904153119 | 12 | 46 | 1.6 | 4.8 | 0.00 | 0.00 | 0.00 | 37 | 1018.5 |
| 20260904152548 | 12 | 0 | 1.6 | 4.8 | 0.00 | 0.00 | 0.00 | 36 | 1018.5 |
| 20260904152049 | 12 | 44 | 1.6 | 4.8 | 0.00 | 0.00 | 0.00 | 37 | 1018.4 |
| 20260904151602 | 11 | 44 | 1.6 | 4.8 | 0.00 | 0.00 | 0.00 | 37 | 1018.4 |
| 20260904151052 | 11 | 0 | 1.6 | 4.8 | 0.00 | 0.00 | 0.00 | 37 | 1018.4 |
| 20260904150543 | 11 | 52 | 0.0 | 1.6 | 0.00 | 0.00 | 0.00 | 38 | 1018.3 |
| 20260904150101 | 11 | 0 | 0.0 | 1.6 | 0.00 | 0.00 | 0.00 | 40 | 1018.4 |
| 20260904145549 | 11 | 0 | 0.0 | 1.6 | 0.00 | 0.00 | 0.00 | 42 | 1018.3 |
| 20260904145042 | 11 | 0 | 0.0 | 1.6 | 0.00 | 0.00 | 0.00 | 44 | 1018.3 |
| 20260904144558 | 11 | 0 | 0.0 | 1.6 | 0.00 | 0.00 | 0.00 | 45 | 1018.3 |
| 20260904144047 | 11 | 0 | 0.0 | 1.6 | 0.00 | 0.00 | 0.00 | 44 | 1018.3 |
| 20260904143544 | 11 | 0 | 0.0 | 0.0 | 0.00 | 0.00 | 0.00 | 43 | 1018.2 |
| 20260904143106 | 10 | 0 | 0.0 | 1.6 | 0.00 | 0.00 | 0.00 | 42 | 1018.3 |
| 20260904142551 | 10 | 0 | 0.0 | 1.6 | 0.00 | 0.00 | 0.00 | 41 | 1018.2 |
| 20260904142045 | 10 | 0 | 0.0 | 1.6 | 0.00 | 0.00 | 0.00 | 42 | 1018.2 |
| 20260904141604 | 10 | 0 | 0.0 | 1.6 | 0.00 | 0.00 | 0.00 | 42 | 1018.1 |
| 20260904141047 | 10 | 0 | 0.0 | 1.6 | 0.00 | 0.00 | 0.00 | 42 | 1018.0 |
| 20260904140547 | 10 | 0 | 0.0 | 0.0 | 0.00 | 0.00 | 0.00 | 40 | 1018.0 |
| 20260904140101 | 10 | 0 | 0.0 | 0.0 | 0.00 | 0.00 | 0.00 | 40 | 1017.9 |
| 20260904135546 | 10 | 0 | 0.0 | 0.0 | 0.00 | 0.00 | 0.00 | 44 | 1017.9 |
| 20260904135047 | 10 | 0 | 0.0 | 0.0 | 0.00 | 0.00 | 0.00 | 45 | 1017.8 |
| 20260904134601 | 10 | 0 | 0.0 | 0.0 | 0.00 | 0.00 | 0.00 | 43 | 1017.8 |
| 20260904134044 | 10 | 0 | 0.0 | 0.0 | 0.00 | 0.00 | 0.00 | 44 | 1017.7 |
| 20260904133548 | 10 | 0 | 0.0 | 0.0 | 0.00 | 0.00 | 0.00 | 43 | 1017.6 |
| 20260904133101 | 10 | 0 | 0.0 | 0.0 | 0.00 | 0.00 | 0.00 | 42 | 1017.5 |
| 20260904132548 | 10 | 0 | 0.0 | 0.0 | 0.00 | 0.00 | 0.00 | 42 | 1017.4 |
| 20260904132047 | 10 | 0 | 0.0 | 0.0 | 0.00 | 0.00 | 0.00 | 41 | 1017.4 |
| 20260904131634 | 11 | 0 | 0.0 | 0.0 | 0.00 | 0.00 | 0.00 | 39 | 1017.4 |
| 20260904131047 | 11 | 0 | 0.0 | 0.0 | 0.00 | 0.00 | 0.00 | 42 | 1017.3 |
| 20260904130547 | 11 | 0 | 0.0 | 0.0 | 0.00 | 0.00 | 0.00 | 44 | 1017.3 |
| 20260904130058 | 11 | 0 | 0.0 | 1.6 | 0.00 | 0.00 | 0.00 | 47 | 1017.3 |
| 20260904125548 | 11 | 0 | 0.0 | 1.6 | 0.00 | 0.00 | 0.00 | 47 | 1017.3 |
| 20260904125048 | 11 | 0 | 0.0 | 0.0 | 0.00 | 0.00 | 0.00 | 47 | 1017.3 |
| 20260904124559 | 11 | 0 | 0.0 | 0.0 | 0.00 | 0.00 | 0.00 | 49 | 1017.3 |
| 20260904124051 | 11 | 0 | 0.0 | 1.6 | 0.00 | 0.00 | 0.00 | 50 | 1017.3 |